Middlesboro, KY

4:27 AM EDT on July 24, 2016 (GMT -0400)
Middlesboro

Weather History for K1A6 - July, 2013

Change the Weather History Date:

Saturday, July 20, 2013

  Actual Average (KLOZ) Record (KLOZ)
Temperature  
Mean Temperature 78 °F 76 °F  
Max Temperature 88 °F 86 °F 95 °F (2008)
Min Temperature 68 °F 66 °F 54 °F (2009)
Degree Days  
Heating Degree Days 0 0  
Month to date heating degree days 0  
Since 1 June heating degree days 9  
Since 1 July heating degree days 0  
Cooling Degree Days 13 11  
Month to date cooling degree days 220  
Year to date cooling degree days 577  
Since 1 June cooling degree days 463  
Growing Degree Days 28 (Base 50)    
Moisture  
Dew Point 70 °F    
Average Humidity 82    
Maximum Humidity 99    
Minimum Humidity 55    
Precipitation  
Precipitation 0.02 in 0.12 in 1.23 in (2001)
Month to date precipitation 2.63  
Sea Level Pressure  
Sea Level Pressure 30.01 in    
Wind  
Wind Speed 1 mph (SSW)    
Max Wind Speed 10 mph    
Max Gust Speed 22 mph    
Visibility 10 miles    
Events Rain , Thunderstorm    
T = Trace of Precipitation, MM = Missing Value Source: NWS Daily Summary

Daily Weather History Graph

Daily Weather History Graph

Search for Another Location

Airport or City:

Trip Planner

Search our weather history database for the weather conditions in past years. The results will help you decide how hot, cold, wet, or windy it might be!

Date:

Astronomy

Jul. 20, 2013 Rise Set
Actual Time 5:31 AM CDT 7:50 PM CDT
Civil Twilight 5:02 AM CDT 8:19 PM CDT
Nautical Twilight 4:26 AM CDT 8:55 PM CDT
Astronomical Twilight 3:46 AM CDT 9:35 PM CDT
Moon 5:53 PM CDT (7/20) 3:10 AM CDT (7/20)
Length of Visible Light 15h 17m
Length of Day
14h 18m
Waxing Gibbous, 94% of the Moon is Illuminated
Jul 20
Waxing Gibbous
Jul 22
Full
Jul 29
Last Quarter
Aug 6
New
Aug 14
First Quarter

Hourly Weather History & Observations

Time (CDT) Temp. Heat Index Dew Point Humidity Pressure Visibility Wind Dir Wind Speed Gust Speed Precip Events Conditions
12:15 AM 71.6 °F - 70.7 °F 97% 30.05 in 10.0 mi Calm Calm - N/A Rain Light Rain
12:35 AM 71.6 °F - 70.7 °F 97% 30.05 in 10.0 mi Calm Calm - N/A   Scattered Clouds
12:55 AM 71.1 °F - 70.3 °F 98% 30.03 in 10.0 mi Calm Calm - N/A   Clear
1:15 AM 71.6 °F - 68.9 °F 91% 30.03 in 10.0 mi Calm Calm - N/A   Clear
1:35 AM 71.1 °F - 69.4 °F 95% 30.04 in 10.0 mi Calm Calm - N/A   Scattered Clouds
1:55 AM 70.7 °F - 69.8 °F 97% 30.03 in 10.0 mi Calm Calm - N/A   Mostly Cloudy
2:15 AM 70.7 °F - 69.6 °F 96% 30.03 in 10.0 mi Calm Calm - N/A   Scattered Clouds
2:35 AM 70.2 °F - 68.7 °F 95% 30.02 in 10.0 mi Calm Calm - N/A   Scattered Clouds
2:55 AM 69.8 °F - 68.9 °F 97% 30.02 in 10.0 mi Calm Calm - N/A   Mostly Cloudy
3:15 AM 70.3 °F - 68.9 °F 95% 30.02 in 10.0 mi Calm Calm - N/A   Overcast
3:35 AM 70.0 °F - 68.5 °F 95% 30.02 in 10.0 mi Calm Calm - N/A   Scattered Clouds
3:55 AM 69.4 °F - 68.5 °F 97% 30.02 in 10.0 mi Calm Calm - N/A   Clear
4:15 AM 69.3 °F - 68.2 °F 96% 30.02 in 10.0 mi Calm Calm - N/A   Clear
4:35 AM 68.9 °F - 68.4 °F 98% 30.02 in 10.0 mi Calm Calm - N/A   Clear
4:55 AM 68.9 °F - 68.2 °F 98% 30.03 in 10.0 mi Calm Calm - N/A   Clear
5:15 AM 68.0 °F - 67.8 °F 99% 30.03 in 10.0 mi Calm Calm - N/A   Clear
5:35 AM 68.0 °F - 67.6 °F 99% 30.04 in 7.0 mi Calm Calm - N/A   Clear
5:55 AM 68.0 °F - 67.5 °F 98% 30.04 in 10.0 mi Calm Calm - N/A   Scattered Clouds
6:15 AM 68.0 °F - 67.3 °F 98% 30.05 in 10.0 mi Calm Calm - N/A   Scattered Clouds
6:35 AM 69.1 °F - 67.8 °F 96% 30.06 in 10.0 mi Calm Calm - N/A   Mostly Cloudy
6:55 AM 69.4 °F - 67.6 °F 94% 30.06 in 10.0 mi Calm Calm - N/A   Scattered Clouds
7:15 AM 70.7 °F - 68.4 °F 92% 30.06 in 10.0 mi Calm Calm - N/A   Clear
7:35 AM 71.6 °F - 68.9 °F 91% 30.06 in 10.0 mi Calm Calm - N/A   Scattered Clouds
7:55 AM 72.9 °F - 69.6 °F 90% 30.07 in 10.0 mi Calm Calm - N/A   Mostly Cloudy
8:15 AM 74.3 °F - 70.2 °F 87% 30.07 in 10.0 mi Calm Calm - N/A   Mostly Cloudy
8:35 AM 75.7 °F - 70.7 °F 84% 30.07 in 10.0 mi Calm Calm - N/A   Scattered Clouds
8:55 AM 78.4 °F - 71.6 °F 79% 30.06 in 10.0 mi Calm Calm - N/A   Clear
9:15 AM 80.1 °F 83.8 °F 72.0 °F 76% 30.05 in 10.0 mi SE 4.6 mph - N/A   Clear
9:35 AM 80.8 °F 84.7 °F 71.6 °F 73% 30.06 in 10.0 mi Calm Calm - N/A   Clear
9:55 AM 81.1 °F 85.4 °F 71.8 °F 73% 30.05 in 10.0 mi SSE 3.5 mph - N/A   Scattered Clouds
10:15 AM 81.5 °F 86.3 °F 72.5 °F 74% 30.05 in 10.0 mi South 4.6 mph - N/A   Mostly Cloudy
10:35 AM 81.3 °F 86.1 °F 72.7 °F 75% 30.05 in 10.0 mi SSE 3.5 mph - N/A   Mostly Cloudy
10:55 AM 84.2 °F 91.6 °F 74.1 °F 72% 30.04 in 10.0 mi SSW 4.6 mph - N/A   Scattered Clouds
11:15 AM 83.3 °F 89.6 °F 73.4 °F 72% 30.04 in 10.0 mi South 5.8 mph - N/A   Mostly Cloudy
11:35 AM 83.7 °F 90.1 °F 73.2 °F 71% 30.03 in 10.0 mi South 6.9 mph - N/A   Mostly Cloudy
11:55 AM 75.0 °F - 68.0 °F 79% 30.04 in 4.0 mi SSW 6.9 mph 21.9 mph 0.02 in Rain , Thunderstorm Rain
12:15 PM 73.9 °F - 70.5 °F 89% 30.03 in 10.0 mi South 4.6 mph - N/A Thunderstorm Thunderstorm
12:35 PM 79.2 °F - 72.7 °F 80% 30.03 in 10.0 mi SSE 4.6 mph - N/A   Clear
12:55 PM 78.1 °F - 68.5 °F 72% 30.02 in 10.0 mi WSW 10.4 mph - N/A   Scattered Clouds
1:15 PM 77.9 °F - 68.4 °F 72% 30.02 in 10.0 mi SW 8.1 mph - N/A   Scattered Clouds
1:35 PM 80.1 °F 83.2 °F 69.8 °F 71% 30.01 in 10.0 mi SW 3.5 mph - N/A   Scattered Clouds
1:55 PM 82.8 °F 87.4 °F 71.1 °F 68% 29.99 in 10.0 mi Calm Calm - N/A   Clear
2:15 PM 83.3 °F 87.4 °F 69.8 °F 64% 29.99 in 10.0 mi West 4.6 mph - N/A   Clear
2:35 PM 82.9 °F 86.7 °F 69.6 °F 64% 29.98 in 10.0 mi Calm Calm - N/A   Clear
2:55 PM 84.2 °F 88.4 °F 70.0 °F 62% 29.97 in 10.0 mi SW 4.6 mph - N/A   Clear
3:15 PM 85.8 °F 89.7 °F 68.9 °F 57% 29.96 in 10.0 mi WSW 4.6 mph - N/A   Clear
3:35 PM 86.9 °F 91.0 °F 68.7 °F 55% 29.95 in 10.0 mi SSW 4.6 mph - N/A   Clear
3:55 PM 87.3 °F 91.6 °F 69.3 °F 55% 29.96 in 10.0 mi WSW 4.6 mph - N/A   Clear
4:15 PM 87.3 °F 91.6 °F 69.3 °F 55% 29.95 in 10.0 mi Calm Calm - N/A   Clear
4:35 PM 87.4 °F 92.7 °F 70.5 °F 57% 29.95 in 10.0 mi West 4.6 mph - N/A   Scattered Clouds
4:55 PM 87.8 °F 92.6 °F 70.0 °F 55% 29.95 in 10.0 mi NW 4.6 mph - N/A   Scattered Clouds
5:15 PM 88.0 °F 93.8 °F 71.1 °F 57% 29.95 in 10.0 mi South 4.6 mph - N/A   Scattered Clouds
5:35 PM 87.1 °F 92.4 °F 70.9 °F 58% 29.95 in 10.0 mi South 4.6 mph - N/A   Clear
5:55 PM 86.2 °F 92.2 °F 72.0 °F 62% 29.94 in 10.0 mi South 3.5 mph - N/A   Clear
6:15 PM 85.5 °F 91.8 °F 72.5 °F 65% 29.95 in 10.0 mi South 6.9 mph - N/A   Mostly Cloudy
6:35 PM 83.3 °F 88.4 °F 71.8 °F 68% 29.96 in 10.0 mi SSW 3.5 mph - N/A   Mostly Cloudy
6:55 PM 82.4 °F 87.0 °F 71.4 °F 69% 29.96 in 10.0 mi Calm Calm - N/A   Scattered Clouds
7:15 PM 81.1 °F 85.4 °F 71.8 °F 73% 29.97 in 10.0 mi WSW 3.5 mph - N/A   Clear
7:35 PM 81.0 °F 85.2 °F 72.1 °F 74% 29.97 in 10.0 mi West 3.5 mph - N/A   Scattered Clouds
7:55 PM 79.7 °F - 72.7 °F 79% 29.97 in 10.0 mi West 3.5 mph - N/A   Scattered Clouds
8:15 PM 77.5 °F - 72.9 °F 85% 29.98 in 10.0 mi Calm Calm - N/A   Scattered Clouds
8:35 PM 77.0 °F - 72.7 °F 86% 29.98 in 10.0 mi Calm Calm - N/A   Scattered Clouds
8:55 PM 76.5 °F - 72.5 °F 87% 29.99 in 10.0 mi Calm Calm - N/A   Clear
9:15 PM 76.1 °F - 72.0 °F 87% 30.00 in 10.0 mi WSW 3.5 mph - N/A   Clear
9:35 PM 75.2 °F - 71.8 °F 89% 30.01 in 10.0 mi Calm Calm - N/A   Clear
9:55 PM 74.8 °F - 70.9 °F 87% 30.01 in 10.0 mi Calm Calm - N/A   Clear
10:15 PM 73.6 °F - 70.3 °F 90% 30.01 in 10.0 mi Calm Calm - N/A   Clear
10:35 PM 72.7 °F - 70.9 °F 94% 30.01 in 10.0 mi Calm Calm - N/A   Clear
10:55 PM 72.7 °F - 70.2 °F 92% 30.02 in 10.0 mi Calm Calm - N/A   Clear
11:15 PM 72.7 °F - 70.2 °F 92% 30.02 in 10.0 mi Calm Calm - N/A   Clear
11:35 PM 71.8 °F - 70.0 °F 94% 30.02 in 10.0 mi Calm Calm - N/A   Clear
11:55 PM 71.6 °F - 69.8 °F 94% 30.02 in 10.0 mi Calm Calm - N/A   Scattered Clouds